Find STARLINK-37458

NORAD ID: 799501210 Int'l Des: 2026-161F Constellation: starlink operational

Current View

Loading 3D Globe...

About STARLINK-37458

STARLINK-37458 (NORAD 799501210) is a starlink constellation satellite launched Jul 14, 2026

About STARLINK-37458

Description loading...

Upcoming Passes

Passes for default location (London). Set your location on the main map for personalized predictions.

Altitude History

Loading altitude history...

Two-Line Element Set

1 99999C 2026161F 26195.65256943 .00193910 00000-0 206490-4 0 1952
2 99999 53.1644 325.4968 0009371 280.0152 225.5441 16.09235766 14
Epoch: Jul 14, 2026 • Age: 6 hours